User: anonymous   Login
Location: Fountain Hills
(33.6120°N, 111.7170°W)
Time: 17:09:58
(UTC-07:00)
Language:

Hamsat - Orbit

View from above orbital plane
View from above orbital plane
View from above satellite
View from above satellite

Ground track
Ground track

The orbit data is extracted from the following two-line orbital elements,

1 28650U 05017B   17177.22912116 +.00000250 +00000-0 +32331-4 0  9994
2 28650 097.6513 151.2599 0025111 100.0397 260.3656 14.88677392657445
Epoch (UTC): 26 June 2017 05:29:56
Eccentricity: 0.0025111
inclination: 97.6513°
perigee height: 584 km
apogee height: 619 km
right ascension of ascending node: 151.2599°
argument of perigee: 100.0397°
revolutions per day: 14.88677392
mean anomaly at epoch: 260.3656°
orbit number at epoch: 65744

The dashed part of the orbit path shows where the satellite is in the earth's shadow,  

DLR